START_TIME,STEP,MOV.,M15,t_acc.,M20,t_acc.
1979-07-30 00:41:54.970 ,0,0,,0,,0
1979-07-30 00:42:18.970 ,0,0,0.,24.0,0.,24.0
1979-07-30 00:43:30.970 ,0,0,0.,24.0,0.,24.0
1979-07-30 00:43:54.970 ,0,0,0.,24.0,0.,24.0
1979-07-30 00:44:18.970 ,4,1,0.,24.0,0.,24.0
1979-07-30 00:44:42.970 ,0,0,0.,24.0,0.,24.0
1979-07-30 00:45:07.570 ,3,1,0.,24.0,0.,24.0
1979-07-30 00:45:30.970 ,3,0,0.,24.0,0.,24.0
1979-07-30 00:45:54.970 ,2,1,0.,24.0,0.,24.0
1979-07-30 00:46:18.970 ,2,0,0.,24.0,0.,24.0
1979-07-30 00:46:42.970 ,1,1,0.,24.0,0.,24.0
1979-07-30 00:47:06.970 ,1,0,0.,24.0,0.,24.0
1979-07-30 00:47:30.970 ,0,0,,0,,0
1979-07-30 00:47:54.970 ,0,0,,0,,0
1979-07-30 00:48:18.970 ,0,0,,0,,0
1979-07-30 00:48:42.970 ,0,0,0.,24.0,0.,24.0
1979-07-30 00:49:06.970 ,1,1,0.,24.0,0.,24.0
1979-07-30 00:49:30.970 ,0,0,,0,,0
1979-07-30 00:52:47.770 ,0,0,,0,,0
1979-07-30 00:53:06.970 ,0,0,0.,24.0,0.,24.0
1979-07-30 00:53:30.970 ,0,0,,0,,0
1979-07-30 00:57:48.970 ,0,0,0.,24.0,0.,24.0
1979-07-30 00:57:54.970 ,3,1,0.,24.0,0.,24.0
1979-07-30 00:58:18.970 ,3,0,0.,24.0,0.,24.0
1979-07-30 00:58:42.970 ,2,1,0.,24.0,0.,24.0
1979-07-30 00:59:06.970 ,2,0,0.,24.0,0.,24.0
1979-07-30 00:59:30.970 ,1,1,0.,24.0,0.,24.0
1979-07-30 00:59:54.970 ,1,0,0.,24.0,0.,24.0
1979-07-30 01:00:18.970 ,0,1,0.,24.0,0.,24.0
1979-07-30 01:00:42.970 ,0,0,0.,24.0,0.,24.0
1979-07-30 01:01:06.970 ,0,1,0.,24.0,0.,24.0
1979-07-30 01:01:30.970 ,0,0,0.,24.0,0.,24.0
1979-07-30 01:01:54.970 ,1,1,0.,24.0,0.,24.0
1979-07-30 01:02:18.970 ,1,0,0.,24.0,0.,24.0
1979-07-30 01:02:42.970 ,2,1,0.,24.0,0.,24.0
1979-07-30 01:03:06.970 ,2,0,0.,24.0,0.,24.0
1979-07-30 01:03:30.970 ,3,1,0.,24.0,0.,24.0
1979-07-30 01:03:54.970 ,3,0,0.,24.0,0.,24.0
1979-07-30 01:04:18.970 ,4,1,0.,24.0,0.,24.0
1979-07-30 01:04:42.970 ,4,0,0.,24.0,0.,24.0
1979-07-30 01:05:06.970 ,5,1,0.,24.0,0.,24.0
1979-07-30 01:05:30.970 ,5,0,0.,24.0,0.,24.0
1979-07-30 01:05:54.970 ,6,1,0.,24.0,0.,24.0
1979-07-30 01:06:18.970 ,6,0,0.,24.0,0.,24.0
1979-07-30 01:06:42.970 ,7,0,0.,24.0,0.,24.0
1979-07-30 01:07:06.970 ,7,0,0.,24.0,0.,24.0
1979-07-30 01:07:30.970 ,3,1,0.,24.0,0.,24.0
1979-07-30 01:07:54.970 ,0,1,0.,24.0,0.,24.0
1979-07-30 01:08:18.970 ,4,1,0.,24.0,0.,24.0
1979-07-30 01:08:42.970 ,7,1,0.,24.0,0.,24.0
1979-07-30 01:09:06.970 ,3,1,0.,24.0,0.,24.0
1979-07-30 01:09:30.970 ,0,1,0.,24.0,0.,24.0
1979-07-30 01:09:54.970 ,4,1,0.,24.0,0.,24.0
1979-07-30 01:10:18.970 ,7,1,0.,24.0,0.,24.0
1979-07-30 01:10:42.970 ,3,1,0.,24.0,0.,24.0
1979-07-30 01:11:06.970 ,0,0,,0,,0
1979-07-30 01:11:33.370 ,0,0,0.,24.0,0.,24.0
1979-07-30 01:11:54.970 ,7,1,0.,24.0,0.,24.0
1979-07-30 01:12:18.970 ,3,1,0.,24.0,0.,24.0
1979-07-30 01:12:42.970 ,0,1,0.,24.0,0.,24.0
1979-07-30 01:13:06.970 ,4,1,0.,24.0,0.,24.0
1979-07-30 01:13:30.970 ,7,1,0.,24.0,0.,24.0
1979-07-30 01:13:54.970 ,3,1,0.,24.0,0.,24.0
1979-07-30 01:14:18.970 ,0,1,0.,24.0,0.,24.0
1979-07-30 01:14:42.970 ,4,1,0.,24.0,0.,24.0
1979-07-30 01:15:06.970 ,7,1,0.,24.0,0.,24.0
1979-07-30 01:15:30.970 ,3,1,0.,24.0,0.,24.0
1979-07-30 01:15:54.970 ,0,1,0.,24.0,0.,24.0
1979-07-30 01:16:18.970 ,4,1,0.,24.0,0.,24.0
1979-07-30 01:16:42.970 ,7,1,0.,24.0,0.,24.0
1979-07-30 01:17:06.970 ,3,1,0.,24.0,0.,24.0
1979-07-30 01:17:30.970 ,0,1,0.,24.0,0.,24.0
1979-07-30 01:17:54.970 ,0,0,0.,24.0,0.,24.0
1979-07-30 01:18:18.970 ,0,0,0.,24.0,0.,24.0
1979-07-30 01:18:42.970 ,5,1,0.,24.0,0.,24.0
1979-07-30 01:19:06.970 ,5,0,0.,24.0,0.,24.0
1979-07-30 01:19:30.970 ,4,1,0.,24.0,0.,24.0
1979-07-30 01:19:54.970 ,4,0,0.,24.0,0.,24.0
1979-07-30 01:20:18.970 ,3,1,0.,24.0,0.,24.0
1979-07-30 01:20:42.970 ,3,0,0.,24.0,0.,24.0
1979-07-30 01:21:06.970 ,2,1,0.,24.0,0.,24.0
1979-07-30 01:21:30.970 ,2,0,0.,24.0,0.,24.0
1979-07-30 01:21:54.970 ,1,1,0.,24.0,0.,24.0
1979-07-30 01:22:18.970 ,1,0,0.,24.0,0.,24.0
1979-07-30 01:22:42.970 ,0,1,0.,24.0,0.,24.0
1979-07-30 01:23:06.970 ,0,0,0.,24.0,0.,24.0
1979-07-30 01:23:30.970 ,0,1,0.,24.0,0.,24.0
1979-07-30 01:23:54.970 ,0,0,0.,24.0,0.,24.0
1979-07-30 01:24:18.970 ,1,1,0.,24.0,0.,24.0
1979-07-30 01:24:42.970 ,1,0,0.,24.0,0.,24.0
1979-07-30 01:25:06.970 ,2,1,0.,24.0,0.,24.0
1979-07-30 01:25:30.970 ,2,0,0.,24.0,0.,24.0
1979-07-30 01:25:54.970 ,3,1,0.,24.0,0.,24.0
1979-07-30 01:26:18.970 ,3,0,0.,24.0,0.,24.0
1979-07-30 01:26:42.970 ,4,1,0.,24.0,0.,24.0
1979-07-30 01:27:06.970 ,4,0,0.,24.0,0.,24.0
1979-07-30 01:27:30.970 ,5,1,0.,24.0,0.,24.0
1979-07-30 01:27:54.970 ,5,0,0.,24.0,0.,24.0
1979-07-30 01:28:18.970 ,6,1,0.,24.0,0.,24.0
1979-07-30 01:28:42.970 ,6,0,0.,24.0,0.,24.0
1979-07-30 01:29:06.970 ,7,1,0.,24.0,0.,24.0
1979-07-30 01:29:30.970 ,7,0,0.,24.0,0.,24.0
1979-07-30 01:29:54.970 ,7,1,0.,24.0,0.,24.0
1979-07-30 01:30:18.970 ,7,0,0.,24.0,0.,24.0
1979-07-30 01:30:42.970 ,6,1,0.,24.0,0.,24.0
1979-07-30 01:31:06.970 ,6,0,0.,24.0,0.,24.0
1979-07-30 01:31:30.970 ,5,1,0.,24.0,0.,24.0
1979-07-30 01:31:54.970 ,5,0,0.,24.0,0.,24.0
1979-07-30 01:32:18.970 ,4,1,0.,24.0,0.,24.0
1979-07-30 01:32:42.970 ,4,0,0.,24.0,0.,24.0
1979-07-30 01:33:06.970 ,3,1,0.,24.0,0.,24.0
1979-07-30 01:33:30.970 ,3,0,0.,24.0,0.,24.0
1979-07-30 01:33:54.970 ,2,1,0.,24.0,0.,24.0
1979-07-30 01:34:18.970 ,2,0,0.,24.0,0.,24.0
1979-07-30 01:34:42.970 ,1,1,0.,24.0,0.,24.0
1979-07-30 01:35:06.970 ,1,0,0.,24.0,0.,24.0
1979-07-30 01:35:30.970 ,0,1,0.,24.0,0.,24.0
1979-07-30 01:35:54.970 ,0,0,0.,24.0,0.,24.0
1979-07-30 01:36:18.970 ,0,1,0.,24.0,0.,24.0
1979-07-30 01:36:42.970 ,0,0,0.,24.0,0.,24.0
1979-07-30 01:37:06.970 ,1,1,0.,24.0,0.,24.0
1979-07-30 01:37:30.970 ,1,0,0.,24.0,0.,24.0
1979-07-30 01:37:54.970 ,2,1,0.,24.0,0.,24.0
1979-07-30 01:38:18.970 ,2,0,0.,24.0,0.,24.0
1979-07-30 01:38:42.970 ,3,1,0.,24.0,0.,24.0
1979-07-30 01:39:06.970 ,3,0,0.,24.0,0.,24.0
1979-07-30 01:39:30.970 ,4,1,0.,24.0,0.,24.0
1979-07-30 01:39:54.970 ,4,0,0.,24.0,0.,24.0
1979-07-30 01:40:18.970 ,5,1,0.,24.0,0.,24.0
1979-07-30 01:40:42.970 ,5,0,0.,24.0,0.,24.0
1979-07-30 01:41:06.970 ,6,1,0.,24.0,0.,24.0
1979-07-30 01:41:30.970 ,6,0,0.,24.0,0.,24.0
1979-07-30 01:41:54.970 ,7,1,1.,24.0,0.,24.0
1979-07-30 01:42:18.970 ,7,0,0.,24.0,0.,24.0
1979-07-30 01:42:42.970 ,7,1,0.,24.0,0.,24.0
1979-07-30 01:43:06.970 ,7,0,0.,24.0,0.,24.0
1979-07-30 01:43:30.970 ,6,1,0.,24.0,0.,24.0
1979-07-30 01:43:54.970 ,6,0,0.,24.0,0.,24.0
1979-07-30 01:44:18.970 ,5,1,0.,24.0,0.,24.0
1979-07-30 01:44:42.970 ,5,0,0.,24.0,0.,24.0
1979-07-30 01:45:06.970 ,4,1,0.,24.0,0.,24.0
1979-07-30 01:45:30.970 ,0,0,8448.,24.0,0.,24.0
1979-07-30 01:45:30.970 ,0,0,0.,24.0,0.,24.0
1979-07-30 01:45:54.970 ,3,1,0.,24.0,0.,24.0
1979-07-30 01:46:18.970 ,3,0,0.,24.0,0.,24.0
1979-07-30 01:46:42.970 ,2,1,0.,24.0,0.,24.0
1979-07-30 01:47:06.970 ,2,0,0.,24.0,0.,24.0
1979-07-30 01:47:30.970 ,1,1,0.,24.0,0.,24.0
1979-07-30 01:47:54.970 ,1,0,0.,24.0,0.,24.0
1979-07-30 01:48:18.970 ,0,1,0.,24.0,0.,24.0
1979-07-30 01:48:42.970 ,0,0,0.,24.0,0.,24.0
1979-07-30 01:49:06.970 ,0,1,0.,24.0,0.,24.0
1979-07-30 01:49:30.970 ,0,0,0.,24.0,0.,24.0
1979-07-30 01:49:54.970 ,1,1,0.,24.0,0.,24.0
1979-07-30 01:50:18.970 ,1,0,0.,24.0,0.,24.0
1979-07-30 01:50:42.970 ,2,1,0.,24.0,0.,24.0
1979-07-30 01:51:06.970 ,2,0,0.,24.0,0.,24.0
1979-07-30 01:51:30.970 ,3,1,0.,24.0,0.,24.0
1979-07-30 01:51:54.970 ,3,0,0.,24.0,0.,24.0
1979-07-30 01:52:18.970 ,4,1,0.,24.0,0.,24.0
1979-07-30 01:52:42.970 ,4,0,0.,24.0,0.,24.0
1979-07-30 01:53:06.970 ,5,1,0.,24.0,0.,24.0
1979-07-30 01:53:30.970 ,5,0,0.,24.0,0.,24.0
1979-07-30 01:53:54.970 ,6,1,0.,24.0,0.,24.0
1979-07-30 01:54:18.970 ,6,0,0.,24.0,0.,24.0
1979-07-30 01:54:42.970 ,7,0,0.,24.0,0.,24.0
1979-07-30 01:55:06.970 ,7,0,0.,24.0,0.,24.0
1979-07-30 01:55:30.970 ,3,1,0.,24.0,0.,24.0
1979-07-30 01:55:54.970 ,0,1,0.,24.0,0.,24.0
1979-07-30 01:56:18.970 ,4,1,0.,24.0,0.,24.0
1979-07-30 01:56:42.970 ,7,1,0.,24.0,0.,24.0
1979-07-30 01:57:06.970 ,3,1,0.,24.0,0.,24.0
1979-07-30 01:57:30.970 ,0,1,0.,24.0,0.,24.0
1979-07-30 01:57:54.970 ,4,1,0.,24.0,0.,24.0
1979-07-30 01:58:18.970 ,7,1,0.,24.0,0.,24.0
1979-07-30 01:58:42.970 ,3,1,0.,24.0,0.,24.0
1979-07-30 01:59:06.970 ,0,1,0.,24.0,0.,24.0
1979-07-30 01:59:30.970 ,4,1,0.,24.0,0.,24.0
1979-07-30 01:59:54.970 ,7,1,0.,24.0,0.,24.0
1979-07-30 02:00:18.970 ,3,1,0.,24.0,0.,24.0
1979-07-30 02:00:42.970 ,0,1,0.,24.0,0.,24.0
1979-07-30 02:01:06.970 ,4,1,0.,24.0,0.,24.0
1979-07-30 02:01:30.970 ,7,1,0.,24.0,0.,24.0
1979-07-30 02:01:54.970 ,3,1,0.,24.0,0.,24.0
1979-07-30 02:02:18.970 ,0,1,0.,24.0,0.,24.0
1979-07-30 02:02:42.970 ,4,1,0.,24.0,0.,24.0
1979-07-30 02:03:06.970 ,7,1,0.,24.0,0.,24.0
1979-07-30 02:03:30.970 ,3,1,0.,24.0,0.,24.0
1979-07-30 02:03:54.970 ,0,1,0.,24.0,0.,24.0
1979-07-30 02:04:18.970 ,4,1,0.,24.0,0.,24.0
1979-07-30 02:04:42.970 ,7,1,0.,24.0,0.,24.0
1979-07-30 02:05:06.970 ,3,1,0.,24.0,0.,24.0
1979-07-30 02:05:30.970 ,0,1,0.,24.0,0.,24.0
1979-07-30 02:05:54.970 ,0,0,0.,24.0,0.,24.0
1979-07-30 02:06:18.970 ,0,0,0.,24.0,0.,24.0
1979-07-30 02:06:42.970 ,5,1,0.,24.0,0.,24.0
1979-07-30 02:07:06.970 ,5,0,0.,24.0,0.,24.0
1979-07-30 02:07:30.970 ,4,1,0.,24.0,0.,24.0
1979-07-30 02:07:54.970 ,4,0,0.,24.0,0.,24.0
1979-07-30 02:08:18.970 ,3,1,0.,24.0,0.,24.0
1979-07-30 02:08:42.970 ,3,0,0.,24.0,0.,24.0
1979-07-30 02:09:06.970 ,2,1,0.,24.0,0.,24.0
1979-07-30 02:09:30.970 ,2,0,0.,24.0,0.,24.0
1979-07-30 02:09:54.970 ,1,1,0.,24.0,0.,24.0
1979-07-30 02:10:18.970 ,1,0,0.,24.0,0.,24.0
1979-07-30 02:10:42.970 ,0,1,0.,24.0,0.,24.0
1979-07-30 02:11:06.970 ,0,0,0.,24.0,0.,24.0
1979-07-30 02:11:30.970 ,0,1,0.,24.0,0.,24.0
1979-07-30 02:11:54.970 ,0,0,0.,24.0,0.,24.0
1979-07-30 02:12:18.970 ,1,1,0.,24.0,0.,24.0
1979-07-30 02:12:42.970 ,1,0,0.,24.0,0.,24.0
1979-07-30 02:13:06.970 ,2,1,0.,24.0,0.,24.0
1979-07-30 02:13:30.970 ,2,0,0.,24.0,0.,24.0
1979-07-30 02:13:54.970 ,3,1,0.,24.0,0.,24.0
1979-07-30 02:14:18.970 ,3,0,0.,24.0,0.,24.0
1979-07-30 02:14:42.970 ,4,1,0.,24.0,0.,24.0
1979-07-30 02:15:06.970 ,4,0,0.,24.0,0.,24.0
1979-07-30 02:15:30.970 ,5,1,0.,24.0,0.,24.0
1979-07-30 02:15:54.970 ,5,0,0.,24.0,0.,24.0
1979-07-30 02:16:18.970 ,6,1,0.,24.0,0.,24.0
1979-07-30 02:16:42.970 ,6,0,0.,24.0,0.,24.0
1979-07-30 02:17:06.970 ,0,0,,0,,0
1979-07-30 02:17:30.970 ,0,0,0.,24.0,0.,24.0
1979-07-30 02:17:54.970 ,7,1,0.,24.0,0.,24.0
1979-07-30 02:18:18.970 ,7,0,0.,24.0,0.,24.0
1979-07-30 02:18:42.970 ,6,1,0.,24.0,0.,24.0
1979-07-30 02:19:06.970 ,6,0,0.,24.0,0.,24.0
1979-07-30 02:19:30.970 ,5,1,0.,24.0,0.,24.0
1979-07-30 02:19:54.970 ,5,0,0.,24.0,0.,24.0
1979-07-30 02:20:18.970 ,4,1,0.,24.0,0.,24.0
1979-07-30 02:20:42.970 ,4,0,0.,24.0,0.,24.0
1979-07-30 02:21:06.970 ,3,1,0.,24.0,0.,24.0
1979-07-30 02:21:30.970 ,3,0,0.,24.0,0.,24.0
1979-07-30 02:21:54.970 ,2,1,0.,24.0,0.,24.0
1979-07-30 02:22:18.970 ,2,0,0.,24.0,0.,24.0
1979-07-30 02:22:42.970 ,1,1,0.,24.0,0.,24.0
1979-07-30 02:23:06.970 ,1,0,0.,24.0,0.,24.0
1979-07-30 02:23:30.970 ,0,1,0.,24.0,0.,24.0
1979-07-30 02:23:54.970 ,0,0,0.,24.0,0.,24.0
1979-07-30 02:24:18.970 ,0,1,0.,24.0,0.,24.0
1979-07-30 02:24:42.970 ,0,0,0.,24.0,0.,24.0
1979-07-30 02:25:06.970 ,1,1,0.,24.0,0.,24.0
1979-07-30 02:25:30.970 ,1,0,0.,24.0,0.,24.0
1979-07-30 02:25:54.970 ,2,1,0.,24.0,0.,24.0
1979-07-30 02:26:18.970 ,2,0,0.,24.0,0.,24.0
1979-07-30 02:26:42.970 ,3,1,0.,24.0,0.,24.0
1979-07-30 02:27:06.970 ,3,0,0.,24.0,0.,24.0
1979-07-30 02:27:30.970 ,4,1,0.,24.0,0.,24.0
1979-07-30 02:27:54.970 ,4,0,0.,24.0,0.,24.0
1979-07-30 02:28:18.970 ,5,1,0.,24.0,0.,24.0
1979-07-30 02:28:42.970 ,5,0,0.,24.0,0.,24.0
1979-07-30 02:29:06.970 ,6,1,0.,24.0,0.,24.0
1979-07-30 02:29:30.970 ,6,0,0.,24.0,0.,24.0
1979-07-30 02:29:54.970 ,7,1,0.,24.0,0.,24.0
1979-07-30 02:30:18.970 ,7,0,0.,24.0,0.,24.0
1979-07-30 02:30:42.970 ,7,1,0.,24.0,0.,24.0
1979-07-30 02:31:06.970 ,7,0,0.,24.0,0.,24.0
1979-07-30 02:31:30.970 ,6,1,0.,24.0,0.,24.0
1979-07-30 02:31:54.970 ,6,0,0.,24.0,0.,24.0
1979-07-30 02:32:18.970 ,5,1,0.,24.0,0.,24.0
1979-07-30 02:32:42.970 ,5,0,0.,24.0,0.,24.0
1979-07-30 02:33:06.970 ,4,1,0.,24.0,0.,24.0
1979-07-30 02:33:30.970 ,4,0,0.,24.0,0.,24.0
1979-07-30 02:33:54.970 ,3,1,0.,24.0,0.,24.0
1979-07-30 02:34:18.970 ,3,0,0.,24.0,0.,24.0
1979-07-30 02:34:42.970 ,2,1,0.,24.0,0.,24.0
1979-07-30 02:35:06.970 ,2,0,0.,24.0,0.,24.0
1979-07-30 02:35:30.970 ,1,1,0.,24.0,0.,24.0
1979-07-30 02:35:54.970 ,1,0,0.,24.0,0.,24.0
1979-07-30 02:36:18.970 ,0,1,0.,24.0,0.,24.0
1979-07-30 02:36:42.970 ,0,0,0.,24.0,0.,24.0
1979-07-30 02:37:06.970 ,0,1,0.,24.0,0.,24.0
1979-07-30 02:37:30.970 ,0,0,0.,24.0,0.,24.0
1979-07-30 02:37:54.970 ,1,1,0.,24.0,0.,24.0
1979-07-30 02:38:18.970 ,1,0,0.,24.0,0.,24.0
1979-07-30 02:38:42.970 ,2,1,0.,24.0,0.,24.0
1979-07-30 02:39:06.970 ,2,0,0.,24.0,0.,24.0
1979-07-30 02:39:30.970 ,3,1,0.,24.0,0.,24.0
1979-07-30 02:39:54.970 ,3,0,0.,24.0,0.,24.0
1979-07-30 02:40:18.970 ,4,1,0.,24.0,0.,24.0
1979-07-30 02:40:42.970 ,4,0,0.,24.0,0.,24.0
1979-07-30 02:41:06.970 ,5,1,0.,24.0,0.,24.0
1979-07-30 02:41:30.970 ,5,0,0.,24.0,0.,24.0
1979-07-30 02:41:54.970 ,6,1,0.,24.0,0.,24.0
1979-07-30 02:42:18.970 ,6,0,0.,24.0,0.,24.0
1979-07-30 02:42:42.970 ,7,0,0.,24.0,0.,24.0
1979-07-30 02:43:06.970 ,7,0,0.,24.0,0.,24.0
1979-07-30 02:43:30.970 ,3,1,0.,24.0,0.,24.0
1979-07-30 02:43:54.970 ,0,1,0.,24.0,0.,24.0
1979-07-30 02:44:18.970 ,4,1,0.,24.0,0.,24.0
1979-07-30 02:44:42.970 ,7,1,0.,24.0,0.,24.0
1979-07-30 02:45:06.970 ,3,1,0.,24.0,0.,24.0
1979-07-30 02:45:30.970 ,0,1,0.,24.0,0.,24.0
1979-07-30 02:45:54.970 ,4,1,0.,24.0,0.,24.0
1979-07-30 02:46:18.970 ,7,1,0.,24.0,0.,24.0
1979-07-30 02:46:42.970 ,0,0,0.,24.0,0.,24.0
1979-07-30 02:47:06.970 ,0,1,0.,24.0,0.,24.0
1979-07-30 02:47:30.970 ,4,1,0.,24.0,0.,24.0
1979-07-30 02:47:54.970 ,7,1,0.,24.0,0.,24.0
1979-07-30 02:48:18.970 ,3,1,0.,24.0,0.,24.0
1979-07-30 02:48:42.970 ,0,1,0.,24.0,0.,24.0
1979-07-30 02:49:06.970 ,4,1,1.,24.0,0.,24.0
1979-07-30 02:49:30.970 ,7,1,0.,24.0,0.,24.0
1979-07-30 02:49:54.970 ,3,1,0.,24.0,0.,24.0
1979-07-30 02:50:18.970 ,0,1,0.,24.0,0.,24.0
1979-07-30 02:50:42.970 ,4,1,0.,24.0,0.,24.0
1979-07-30 02:51:06.970 ,7,1,0.,24.0,0.,24.0
1979-07-30 02:51:30.970 ,3,1,0.,24.0,0.,24.0
1979-07-30 02:51:54.970 ,0,1,0.,24.0,0.,24.0
1979-07-30 02:52:18.970 ,4,1,0.,24.0,0.,24.0
1979-07-30 02:52:42.970 ,7,1,0.,24.0,0.,24.0
1979-07-30 02:53:06.970 ,3,1,0.,24.0,0.,24.0
1979-07-30 02:53:30.970 ,0,1,0.,24.0,0.,24.0
1979-07-30 02:53:54.970 ,0,0,0.,24.0,0.,24.0
1979-07-30 02:54:18.970 ,0,0,0.,24.0,0.,24.0
1979-07-30 02:54:42.970 ,5,1,0.,24.0,0.,24.0
1979-07-30 02:55:06.970 ,5,0,0.,24.0,0.,24.0
1979-07-30 02:55:30.960 ,4,1,0.,24.0,0.,24.0
1979-07-30 02:55:54.960 ,4,0,0.,24.0,0.,24.0
1979-07-30 02:56:18.960 ,3,1,0.,24.0,0.,24.0
1979-07-30 02:56:42.960 ,3,0,0.,24.0,0.,24.0
1979-07-30 02:57:06.960 ,2,1,0.,24.0,0.,24.0
1979-07-30 02:57:30.960 ,2,0,0.,24.0,0.,24.0
1979-07-30 02:57:54.960 ,1,1,0.,24.0,0.,24.0
1979-07-30 02:58:18.960 ,1,0,0.,24.0,0.,24.0
1979-07-30 02:58:42.960 ,0,1,0.,24.0,0.,24.0
1979-07-30 02:59:06.960 ,0,0,0.,24.0,0.,24.0
1979-07-30 02:59:30.960 ,0,1,0.,24.0,0.,24.0
1979-07-30 02:59:54.960 ,0,0,0.,24.0,0.,24.0
1979-07-30 03:00:18.960 ,1,1,0.,24.0,0.,24.0
